Regional Weather Roundup
Issued by NWS

Home | Current Version | Previous Version | Text Only | Print | Product List | Glossary On
Versions: 1 2 3 4 5 6 7 8 9 10 11 12 13 14 15 16 17 18 19 20 21 22 23 24 25 26 27 28 29 30 31 32 33 34 35 36 37 38 39 40 41 42 43 44 45 46 47 48 49 50
063
ASUS42 KFFC 301303
RWRGA
WEATHER ROUNDUP FOR GEORGIA
NATIONAL WEATHER SERVICE PEACHTREE CITY GA
900 AM EDT SUN APR 30 2017

NOTE: "FAIR" INDICATES FEW OR NO CLOUDS BELOW 12,000 FEET WITH NO
SIGNIFICANT WEATHER AND/OR OBSTRUCTIONS TO VISIBILITY.

* = USE WITH CAUTION. THE STATIONS MARKED WITH AN ASTERISK MAY NOT
REPORT WEATHER SUCH AS PRECIPITATION, FOG, OR THUNDER AND ARE NOT
QUALITY CONTROLLED BY NWS.

THE REMARK "TC" DENOTES TEMPERATURE READING IN DEGREES CELSIUS.

GAZ001>058-301400-
NORTH GEORGIA

CITY           SKY/WX    TMP DP  RH WIND       PRES   REMARKS
ATLANTA        CLOUDY    70  66  87 S15G23    30.08R
ATHENS         PTSUNNY   71  67  87 VRB6      30.12S
CHAMBLEE       CLOUDY    70  65  84 S12G20    30.08R
PEACHTREE CITY CLOUDY    70  67  90 SE13G20   30.08R
ROME           CLOUDY    73  67  81 S8        30.06R
WEST ATLANTA   CLOUDY    72  67  84 S13       30.07R
GAINESVILLE    CLOUDY    68  65  90 SE8       30.13S
CARTERSVILLE   CLOUDY    71  66  84 SE8       30.08R


CITY           SKY/WX    TMP DP  RH WIND       PRES   REMARKS
DALTON*        CLOUDY    70  68  94 S6        30.07R
LAWRENCEVILLE* CLOUDY    70  64  83 SE9       30.11R
MARIETTA       CLOUDY    71  65  83 SE10G18   30.08R
KENNESAW*      CLOUDY    70  64  83 S6        30.05R
CANTON*        CLOUDY    70  63  78 SE6       30.10R
$$

GAZ059>098-102>109-301400-
CENTRAL GEORGIA

CITY           SKY/WX    TMP DP  RH WIND       PRES   REMARKS
AUGUSTA-BUSH   MOSUNNY   77  69  76 S12G21    30.12F
AUGUSTA-DANIEL CLOUDY    75  67  76 SE10G16   30.14F
COLUMBUS       CLOUDY    72  67  84 S14       30.06R
MACON          CLOUDY    73  67  81 S12G20    30.09S
ROBINS AFB     CLOUDY    75  69  81 S15       30.09R


CITY           SKY/WX    TMP DP  RH WIND       PRES   REMARKS
LAGRANGE*      CLOUDY    73  73 100 S10G21    30.07R
SYLVANIA*      PTSUNNY  N/A N/A N/A S3        30.16F
MILLEDGEVILLE* PTSUNNY   73  72  94 S5        30.11R
$$

GAZ099>101-110>166-301400-
SOUTH GEORGIA

CITY           SKY/WX    TMP DP  RH WIND       PRES   REMARKS
SAVANNAH       PTSUNNY   79  69  71 SE14      30.15F
VALDOSTA       CLOUDY    74  70  87 SE10G18   30.10R
ALMA           PTSUNNY   75  71  87 SE10G22   30.11F
ST SIMONS      PTSUNNY   77  70  79 SE12G18   30.15S
FT STEWART     MOSUNNY   77  71  80 SE12      30.11F
ALBANY         PTSUNNY   76  69  79 S12G21    30.09R
HUNTER AFB     SUNNY     79  75  89 S8G17     30.13F
MOODY AFB      PTSUNNY   74  69  82 SE10      30.09S
BRUNSWICK      PTSUNNY   77  72  83 S12       30.15S


CITY           SKY/WX    TMP DP  RH WIND       PRES   REMARKS
BAINBRIDGE*    SUNNY     77  68  73 SE14G21   30.05R
MOULTRIE*      CLOUDY    73  68  83 S15       30.08F
VIDALIA*       CLOUDY    75  70  83 S9        30.13F
WAYCROSS*      CLOUDY    79  76  91 S15       30.12S
DOUGLAS*       CLOUDY    73  70  88 S10G17    30.12S
$$




USA.gov is the U.S. government's official web portal to all federal, state and local government web resources and services.